Probability
0 0 0 0 0 0 0 0 0 0 0 0 0 0 0 0 0 0 0 0 0 0 0 0 0 0 0 0 0 0 0 0 0 0 0 0 0 0 0 0 0 0 0 0
0 0 0 0 0 0 0 0 0 0 0 0 0 0 0 0 0 0 0 0 0 0 0 0 0 0 0 0 0 0 0 0 0 0 0 0 0 0 0 0 0 0 0 0
0 0 0 0 0 0 0 0 0 0 0 0 0 0 0 0 0 0 0 0 0 0 0 0 0 0 0 0 0 0 0 0 0 0 0 0 0 0 0 0 0 0 0 0
0 0 0 0 0 0 0 0 0 0 0 0 0 0 0 0 0 0 0 0 0 0 0 0 0 0 0 0 0 0 0 0 0 0 0 0 0 0 0 0 0 0 0 0
0 0 0 0 0 0 0 0 0 0 0 0 0 0 0 0 0 0 0 0 0 0 0 0 0 0 0 0 0 0 0 0 0 0 0 0 0 0 0 0 0 0 0 0
0 0 0 0 0 0 0 0 0 0 0 0 0 0 0 0 0 0 0 0 0 0 0 0 0 0 0 0 0 0 0 0 0 0 0 0 0 0 0 0 0 0 0 0
0 0 0 0 0 0 0 0 0 0 0 0 0 0 0 0 0 0 0 0 0 0 0 0 0 0 0 0 0 0 0 0 0 0 0 0 0 0 0 0 0 0 0 0
0 0 0 0 0 0 0 0 0 0 0 0 0 0 0 0 0 0 0 0 0 0 0 0 0 0 0 0 0 0 0 0 0 0 0 0 0 0 0 0 0 0 0 0
0 0 0 0 0 0 0 0 0 0 0 0 0 0 0 0 0 0 0 0 0 0 0 0 0 0 0 0 0 0 0 0 0 0 0 0 0 0 0 0 0 0 0 0
0 0 0 0 0 0 0 0 0 0 0 0 0 0 0 0 0 0 0 0 0 0 0 0 0 0 0 0 0 0 0 0 0 0 0 0 0 0 0 0 0 0 0 0
0 0 0 0 0 0 0 0 0 0 0 0 0 0 0 0 0 0 0 0 0 0 0 0 0 0 0 0 0 0 0 0 0 0 0 0 0 0 0 0 0 0 0 0
0 0 0 0 0 0 0 0 0 0 0 0 0 0 0 0 0 0 0 0 0 0 0 0 0 0 0 0 0 0 0 0 0 0 0 0 0 0 0 0 0 0 0 0
0 0 0 0 0 0 0 0 0 0 0 0 0 0 0 0 0 0 0 0 0 0 0 0 0 0 0 0 0 0 0 0 0 0 0 0 0 0 0 0 0 0 0 0
0 0 0 0 0 0 0 0 0 0 0 0 0 0 0 0 0 0 0 0 0 0 0 0 0 0 0 0 0 0 0 0 0 0 0 0 0 0 0 0 0 0 0 0
0 0 0 0 0 0 0 0 0 0 0 0 0 0 0 0 0 0 0 0 0 0 0 0 0 0 0 0 0 0 0 0 0 0 0 0 0 0 0 0 0 0 0 0
0 0 0 0 0 0 0 0 0 0 0 0 0 0 0 0 0 0 0 0 0 0 0 0 0 0 0 0 0 0 0 0 0 0 0 0 0 0 0 0 0 0 0 0
0 0 0 0 0 0 0 0 0 0 0 0 0 0 0 0 0 0 0 0 0 0 0 0 0 0 0 0 0 0 0 0 0 0 0 0 0 0 0 0 0 0 0 0
0 0 0 0 0 0 0 0 0 0 0 0 0 0 0 0 0 0 0 0 0 0 0 0 0 0 0 0 0 0 0 0 0 0 0 0 0 0 0 0 0 0 0 0
0 0 0 0 0 0 0 0 0 0 0 0 0 0 0 0 0 0 0 0 0 0 0 0 0 0 0 0 0 0 0 0 0 0 0 0 0 0 0 0 0 0 0 0
0 0 0 0 0 0 0 0 0 0 0 0 0 0 0 0 0 0 0 0 0 0 0 0 0 0 0 0 0 0 0 0 0 0 0 0 0 0 0 0 0 0 0 0
0 0 0 0 0 0 0 0 0 0 0 0 0 0 0 0 0 0 0 0 0 0 0 0 0 0 0 0 0 0 0 0 0 0 0 0 0 0 0 0 0 0 0 0
0 0 0 0 0 0 0 0 0 0 0 0 0 0 0 0 0 0 0 0 0 0 0 0 0 0 0 0 0 0 0 0 0 0 0 0 0 0 0 0 0 0 0 0
0 0 0 0 0 0 0 0 0 0 0 0 0 0 0 0 0 0 0 0 0 0 0 0 0 0 0 0 0 0 0 0 0 0 0 0 0 0 0 0 0 0 0 0
0 0 0 0 0 0 0 0 0 0 0 0 0 0 0 0 0 0 0 0 0 0 0 0 0 0 0 0 0 0 0 0 0 0 0 0 0 0 0 0 0 0 0 0
0 0 0 0 0 0 0 0 0 0 0 0 0 0 0 0 0 0 0 0 0 0 0 0 0 0 0 0 0 0 0 0 0 0 0 0 0 0 0 0 0 0 0 0
0 0 0 0 0 0 0 0 0 0 0 0 0 0 0 0 0 0 0 0 0 0 0 0 0 0 0 0 0 0 0 0 0 0 0 0 0 0 0 0 0 0 0 0
0 0 0 0 0 0 0 0 0 0 0 0 0 0 0 0 0 0 0 0 0 0 0 0 0 0 0 0 0 0 0 0 0 0 0 0 0 0 0 0 0 0 0 0
Wind_Speed
5 1 2 4 5 4 6 5 5 5 5 3 5 5 6 6 7 8 7 8 8 7 7 8 8 8 9 9 10 11 11 12 12 11 11 11 11 11 11 11 13 11 11 11
4 3 2 5 7 6 6 5 6 6 3 5 4 5 6 7 7 7 7 7 8 8 8 8 8 9 9 10 10 10 11 12 12 11 10 10 11 10 10 10 11 10 11 12
5 2 4 7 6 8 4 5 3 2 1 4 4 6 5 7 7 6 6 6 7 7 7 8 8 8 9 10 11 11 11 11 10 10 11 10 12 11 10 10 10 10 10 11
4 6 6 2 3 1 3 3 2 1 2 3 4 6 9 8 6 5 5 5 6 6 7 7 7 7 8 9 11 11 10 10 10 11 11 10 10 10 10 9 9 9 10 10
1 5 9 2 2 2 2 4 4 3 2 4 5 3 5 5 4 4 4 4 5 5 6 7 7 8 9 11 11 10 10 11 12 11 11 11 10 10 9 8 8 8 9 10
2 3 7 1 5 4 3 4 5 5 3 3 4 2 1 2 3 4 4 4 5 6 6 7 8 8 10 11 11 11 11 12 12 11 11 11 10 9 8 8 9 10 10 10
4 6 9 4 6 5 3 4 6 6 5 4 2 3 4 4 4 4 4 5 5 6 6 7 8 9 9 10 10 11 12 12 11 10 10 10 8 8 8 9 10 10 10 10
4 5 10 7 7 6 5 6 6 6 6 5 5 6 6 5 4 4 4 5 6 6 7 7 8 8 9 9 10 11 12 12 11 10 10 10 8 8 8 8 9 9 9 9
7 7 2 6 5 4 7 7 6 6 7 6 5 6 5 4 3 4 4 5 5 6 8 8 8 8 8 9 10 11 12 12 10 10 8 8 8 7 7 7 7 8 8 8
5 4 6 6 6 5 6 8 8 8 7 6 6 6 5 3 3 3 4 4 5 6 8 9 8 8 7 8 9 11 12 11 9 9 9 8 7 7 6 7 7 7 8 8
6 2 5 5 7 7 9 10 10 9 7 6 7 6 4 3 3 3 3 4 5 6 7 8 8 8 8 8 9 10 10 10 9 9 8 7 8 8 9 6 11 8 5 5
6 7 8 7 10 10 10 9 9 9 7 7 6 6 4 3 2 2 3 4 5 6 7 8 8 8 8 8 9 10 10 9 7 7 7 7 6 7 14 16 19 19 17 14
4 5 5 9 10 9 9 9 8 8 8 7 6 5 4 2 0 2 3 4 5 6 7 7 7 8 8 9 10 10 10 9 7 8 8 8 8 7 7 11 16 18 18 19
8 9 7 5 7 9 10 10 9 8 8 7 6 5 4 2 0 2 3 5 5 6 6 6 7 8 9 9 10 11 9 10 10 6 6 6 6 6 6 7 7 7 11 17
6 5 7 8 11 11 11 11 10 8 7 6 6 5 3 2 1 3 5 5 5 5 5 6 7 9 10 10 11 11 9 7 6 5 6 6 6 6 5 6 6 7 5 8
7 8 10 12 13 12 11 11 9 9 7 7 6 5 4 2 3 5 4 3 4 6 6 6 7 9 10 10 11 9 8 15 14 7 6 7 6 6 6 6 6 6 6 5
13 11 11 13 13 12 11 9 9 10 8 8 7 6 4 3 4 3 2 4 4 6 6 5 7 10 10 9 9 8 7 9 16 10 7 7 7 7 6 6 6 7 6 9
11 10 12 15 14 13 10 9 9 10 8 8 8 6 5 4 2 2 4 5 5 6 4 3 7 8 8 8 8 6 6 6 7 7 7 7 8 7 7 7 8 9 7 9
9 9 10 11 11 11 10 9 9 9 9 9 8 7 5 3 2 2 3 4 5 5 5 6 12 8 8 10 12 5 6 7 8 8 7 12 11 8 8 9 9 9 9 8
9 9 10 10 10 10 10 9 10 9 8 8 8 6 5 4 3 2 3 4 4 3 5 8 6 5 7 9 12 5 6 7 8 8 8 8 9 10 10 10 10 10 9 9
10 11 11 11 10 9 10 11 11 11 9 9 8 7 6 4 3 2 2 3 2 2 5 9 4 5 7 9 10 5 6 7 7 8 9 10 10 11 11 11 12 11 11 10
11 11 12 11 11 10 9 9 9 10 10 8 7 7 5 4 4 4 5 4 4 6 4 3 3 8 11 10 5 5 6 7 7 7 8 9 10 11 11 12 12 12 12 11
11 11 12 12 11 10 9 8 9 10 10 10 9 8 7 5 4 3 3 2 2 6 4 2 6 11 13 6 4 5 6 6 7 8 8 9 9 10 11 12 12 12 12 12
11 11 10 10 10 10 10 8 8 7 7 7 7 7 6 4 3 4 3 3 4 5 3 5 8 10 9 4 4 5 5 6 6 7 8 9 9 9 10 11 12 12 12 14
12 11 11 13 12 9 9 9 8 6 7 5 6 6 5 4 3 3 2 2 4 4 2 4 7 8 5 3 4 4 5 5 7 7 7 8 9 10 11 11 12 12 12 13
11 11 10 10 8 8 9 10 8 8 8 7 6 6 6 5 4 3 3 4 4 4 2 2 2 4 3 3 4 4 4 6 7 7 8 9 10 10 10 12 14 12 12 13
9 8 7 6 6 8 9 9 10 10 10 9 8 7 7 6 5 5 5 4 3 3 2 2 2 2 2 3 4 4 4 4 5 5 7 8 8 9 11 13 11 11 12 13
Wind_Direction
291 264 190 258 268 248 227 245 259 290 352 46 67 38 34 51 53 36 20 8 3 354 344 342 341 339 337 334 336 332 326 321 315 312 313 315 318 319 321 323 323 319 319 317
285 142 202 251 241 239 246 249 263 291 329 89 51 36 30 57 50 31 12 2 356 348 343 340 337 335 333 331 328 323 316 310 310 313 318 320 320 322 323 321 319 320 319 317
291 239 259 271 217 193 208 212 237 265 81 58 27 21 35 68 54 29 10 358 349 342 338 332 331 331 330 326 321 315 309 310 316 321 322 322 325 327 323 321 321 319 316 315
301 327 277 245 17 91 203 232 197 203 58 62 44 54 73 70 55 26 8 355 343 336 329 324 326 330 326 321 315 311 314 322 327 325 323 324 326 326 324 321 320 316 316 317
313 294 274 177 185 161 187 267 175 164 116 69 42 72 86 58 55 39 18 360 342 333 326 328 334 336 328 319 314 319 330 332 330 328 329 330 331 329 326 324 322 320 321 322
196 255 263 226 134 101 86 259 137 127 114 73 43 348 125 82 53 44 22 0 347 337 334 336 335 330 322 317 324 334 335 332 328 329 330 329 332 331 332 332 332 330 329 329
220 242 266 137 130 124 164 237 135 124 115 99 105 136 116 94 63 42 15 357 355 344 337 334 327 321 318 321 332 333 331 326 327 330 329 332 334 334 336 337 335 334 332 333
205 237 255 146 148 189 192 123 123 115 109 109 105 103 96 82 66 38 12 1 357 343 332 327 321 320 322 328 329 331 329 327 329 331 336 343 338 337 337 337 336 336 337 341
205 219 150 158 168 137 127 131 121 116 114 118 117 110 102 86 62 38 19 359 347 337 327 324 319 323 327 327 332 333 331 330 331 334 336 339 340 339 340 339 339 346 346 346
271 231 172 160 120 128 122 117 111 115 117 120 121 118 115 101 64 33 8 349 342 335 326 318 318 327 326 328 335 333 331 331 335 338 338 340 342 342 343 340 343 352 348 346
249 161 133 170 152 136 113 112 112 112 114 119 124 125 122 108 70 24 349 338 332 320 312 313 322 327 329 336 336 332 329 331 336 339 335 339 344 346 348 342 354 358 343 340
225 186 173 186 159 138 134 135 132 128 123 120 125 129 122 108 80 359 327 318 317 317 319 318 323 327 331 338 337 333 334 335 336 337 338 339 336 341 352 357 358 1 0 5
122 112 113 129 134 130 135 135 132 133 134 129 121 121 119 120 116 310 308 317 319 315 312 316 328 329 332 336 335 332 330 331 336 339 334 337 341 341 339 346 355 357 356 358
115 104 107 125 137 131 126 124 119 115 121 125 125 122 122 131 257 309 313 304 300 305 313 331 333 328 329 332 333 331 327 331 338 325 324 326 330 332 333 337 337 337 345 350
157 136 145 136 126 122 125 128 127 130 133 132 133 136 144 163 260 290 286 287 309 319 330 333 326 324 327 332 334 329 327 323 324 320 320 321 322 323 323 326 326 323 321 334
150 125 135 141 142 143 147 150 152 159 158 153 154 161 165 187 255 269 279 332 337 321 315 314 318 321 326 332 332 328 326 333 338 331 322 321 319 318 317 314 313 312 312 310
149 157 162 164 162 165 169 167 163 163 160 162 167 161 167 217 258 272 336 342 313 292 288 307 316 316 321 326 326 325 322 324 333 330 317 316 315 315 311 308 306 307 304 309
177 170 168 168 166 166 164 157 153 155 159 160 151 158 183 210 237 295 311 312 307 302 297 327 308 311 318 320 324 322 320 320 321 319 319 320 324 321 315 310 306 305 303 306
165 156 154 154 155 156 156 153 150 147 146 148 157 174 185 189 205 272 297 306 304 309 314 312 321 335 319 321 335 325 323 323 325 325 324 330 333 324 323 319 314 310 304 302
155 147 141 138 139 144 148 144 141 145 152 156 157 162 176 197 209 257 292 281 259 263 290 301 317 320 315 320 339 332 326 326 327 329 331 332 331 331 328 327 325 319 313 306
147 141 139 141 141 143 149 152 154 158 158 159 163 172 182 190 205 230 265 287 281 283 303 323 339 314 314 335 345 333 327 329 331 332 334 335 334 333 331 331 330 328 325 319
149 148 148 148 148 151 153 153 152 151 153 160 162 162 170 195 218 234 236 234 268 310 316 311 309 321 337 349 338 328 329 333 335 335 336 336 335 333 333 332 331 330 329 325
156 156 157 159 157 149 143 148 153 158 165 169 170 174 183 194 196 207 243 222 252 304 317 297 318 333 348 355 331 328 331 334 335 336 336 335 333 332 331 330 330 330 329 329
159 157 154 143 132 139 156 164 157 160 164 166 173 175 176 183 208 216 221 270 293 308 308 309 329 343 355 347 327 327 328 326 326 333 335 333 331 330 330 329 330 330 330 330
154 148 146 149 157 168 164 151 146 151 157 168 175 181 186 189 196 196 191 238 274 296 300 317 334 348 354 326 325 325 324 325 333 340 336 334 333 332 330 330 331 331 332 334
156 161 167 172 168 161 158 161 170 174 177 181 185 186 188 192 198 204 216 230 244 266 275 282 308 332 327 321 320 322 322 327 335 334 332 334 331 331 330 330 329 331 333 334
143 149 151 158 163 161 163 171 177 181 183 183 182 181 181 182 186 196 206 215 221 231 241 251 265 287 301 310 313 317 319 321 325 329 333 332 329 328 327 327 328 331 334 334